Weather reports worldwide

Advertisment
Firenze/Peretola, Italy (16170): temperature & dewpoint: 09.10.2019 20:00:00 - 15.10.2019 20:00:00 (CEST)Firenze/Peretola, Italy (16170): wind speed: 09.10.2019 20:00:00 - 15.10.2019 20:00:00 (CEST)Firenze/Peretola, Italy (16170): wind direction: 09.10.2019 20:00:00 - 15.10.2019 20:00:00 (CEST)Firenze/Peretola, Italy (16170): reduced air pressure: 09.10.2019 20:00:00 - 15.10.2019 20:00:00 (CEST)Firenze/Peretola, Italy (16170): visibility: 09.10.2019 20:00:00 - 15.10.2019 20:00:00 (CEST)Firenze/Peretola, Italy (16170): precipitation: 09.10.2019 20:00:00 - 15.10.2019 20:00:00 (CEST)
Date & Time tt [°C] td [°C] ff [km/h] ff [kn] dd ppp [hPa] vv [km] rr [mm]
15.10.2019 20:00:00 16,0 16,0 5 3 NE - 10 -
15.10.2019 19:00:00 21,0 18,0 21 11 WSW - 6 -
15.10.2019 18:00:00 23,0 17,0 21 11 SSE - 10 -
15.10.2019 17:00:00 24,2 17,0 16 9 SSE 1011,0 10 0,0
15.10.2019 16:00:00 24,0 17,0 11 6 SE - 10 -
15.10.2019 15:00:00 23,0 17,0 13 7 ESE - 10 -
15.10.2019 14:00:00 21,9 17,8 15 8 E 1013,5 10 -
15.10.2019 13:00:00 19,0 17,0 13 7 E - 10 -
15.10.2019 12:00:00 22,0 15,0 16 9 E - 8 -
15.10.2019 11:00:00 22,0 15,8 13 7 ESE 1015,9 10 0,0
15.10.2019 10:00:00 21,0 16,0 9 5 E - 10 -
15.10.2019 09:00:00 20,0 16,0 11 6 E - 10 -
15.10.2019 08:00:00 19,2 15,8 13 7 E 1016,1 10 -
15.10.2019 07:00:00 20,0 16,0 5 3 SE - 10 -
15.10.2019 06:00:00 18,0 16,0 2 1 - - 10 -
15.10.2019 05:00:00 17,8 16,5 4 2 E 1017,3 10 0,0
15.10.2019 04:00:00 18,0 16,0 4 2 SW - 10 -
15.10.2019 03:00:00 17,0 16,0 2 1 - - 10 -
15.10.2019 02:00:00 18,9 16,4 2 1 - 1018,8 10 -
15.10.2019 01:00:00 19,0 17,0 4 2 E - 10 -
15.10.2019 00:00:00 20,0 17,0 4 2 W - 10 -
14.10.2019 23:00:00 20,7 16,6 5 3 SSE 1019,4 10 0,0
14.10.2019 22:00:00 20,0 17,0 4 2 - - 10 -
14.10.2019 21:00:00 21,0 16,0 4 2 - - 10 -
14.10.2019 20:00:00 21,2 16,5 8 4 S 1019,1 10 -
14.10.2019 19:00:00 22,0 16,0 4 2 - - 10 -
14.10.2019 18:00:00 23,0 17,0 5 3 W - 10 -
14.10.2019 17:00:00 23,2 16,4 9 5 W 1019,4 10 0,0
14.10.2019 16:00:00 23,0 16,0 11 6 WNW - 10 -
14.10.2019 15:00:00 24,0 16,0 5 3 W - 10 -
14.10.2019 14:00:00 24,7 15,4 4 2 - 1020,9 10 -
14.10.2019 13:00:00 24,0 15,0 4 2 - - 10 -
14.10.2019 12:00:00 22,0 15,0 4 2 - - 10 -
14.10.2019 11:00:00 18,9 14,8 4 2 - 1022,7 10 0,0
14.10.2019 10:00:00 17,0 14,0 2 1 - - 10 -
14.10.2019 09:00:00 15,0 14,0 2 1 - - 10 -
14.10.2019 08:00:00 13,6 13,1 2 1 - 1022,4 10 -
14.10.2019 07:00:00 14,0 13,0 2 1 - - 10 -
14.10.2019 06:00:00 14,0 13,0 2 1 - - 10 -
14.10.2019 05:00:00 14,8 13,7 4 2 S 1022,6 10 0,0
14.10.2019 04:00:00 15,0 14,0 4 2 SSW - 10 -
14.10.2019 03:00:00 14,0 14,0 2 1 - - 10 -
14.10.2019 02:00:00 13,5 12,7 4 2 - 1023,0 10 -
14.10.2019 01:00:00 16,0 14,0 2 1 - - 10 -
14.10.2019 00:00:00 17,0 15,0 4 2 - - 10 -
13.10.2019 23:00:00 17,4 14,5 4 2 - 1023,6 10 0,0
13.10.2019 22:00:00 16,0 14,0 2 1 - - 10 -
13.10.2019 21:00:00 18,0 14,0 4 2 - - 10 -
13.10.2019 20:00:00 18,5 14,7 9 5 ENE 1023,0 10 -
13.10.2019 19:00:00 20,0 14,0 4 2 - - 10 -
13.10.2019 18:00:00 22,0 14,0 2 1 - - 10 -
13.10.2019 17:00:00 22,6 13,6 4 2 - 1022,9 10 0,0
13.10.2019 16:00:00 23,0 14,0 4 2 - - 10 -
13.10.2019 15:00:00 23,0 14,0 4 2 - - 10 -
13.10.2019 14:00:00 21,9 13,7 4 2 - 1023,8 10 -
13.10.2019 13:00:00 21,0 14,0 5 3 SSE - 10 -
13.10.2019 12:00:00 20,0 15,0 5 3 - - 10 -
13.10.2019 11:00:00 18,4 14,7 2 1 - 1025,0 10 0,0
13.10.2019 10:00:00 17,0 14,0 2 1 - - 10 -
13.10.2019 09:00:00 14,0 14,0 2 1 - - 10 -
13.10.2019 08:00:00 12,1 12,0 2 1 - 1024,0 10 -
13.10.2019 07:00:00 13,0 13,0 4 2 E - 10 -
13.10.2019 06:00:00 13,0 13,0 4 2 - - 10 -
13.10.2019 05:00:00 13,1 12,8 4 2 - 1023,6 10 0,0
13.10.2019 04:00:00 15,0 14,0 4 2 N - 10 -
13.10.2019 03:00:00 16,0 14,0 8 4 ESE - 10 -
13.10.2019 02:00:00 16,4 14,8 5 3 ESE 1023,8 10 -
13.10.2019 01:00:00 18,0 15,0 9 5 ESE - 10 -
13.10.2019 00:00:00 17,0 15,0 9 5 ENE - 10 -
12.10.2019 23:00:00 18,0 15,2 4 2 - 1023,9 10 0,0
12.10.2019 22:00:00 18,0 15,0 4 2 - - 10 -
12.10.2019 21:00:00 18,0 15,0 2 1 - - 10 -
12.10.2019 20:00:00 20,3 14,9 8 4 WSW 1023,0 10 -
12.10.2019 19:00:00 22,0 14,0 8 4 SSW - 10 -
12.10.2019 18:00:00 23,0 14,0 4 2 NW - 10 -
12.10.2019 17:00:00 23,5 14,0 5 3 - 1022,1 10 0,0
12.10.2019 16:00:00 24,0 14,0 8 4 NW - 10 -
12.10.2019 15:00:00 24,0 14,0 8 4 WNW - 10 -
12.10.2019 14:00:00 23,5 13,1 8 4 NW 1023,1 10 -
12.10.2019 13:00:00 22,0 13,0 4 2 - - 10 -
12.10.2019 12:00:00 19,0 13,0 4 2 - - 10 -
12.10.2019 11:00:00 16,8 12,2 2 1 - 1024,6 10 0,0
12.10.2019 10:00:00 15,0 12,0 4 2 - - 10 -
12.10.2019 09:00:00 12,0 12,0 2 1 NW - 10 -
12.10.2019 08:00:00 10,5 10,4 4 2 NE 1023,5 10 -
12.10.2019 07:00:00 10,0 10,0 2 1 ENE - 10 -
12.10.2019 06:00:00 10,0 10,0 2 1 E - 10 -
12.10.2019 05:00:00 10,6 10,3 4 2 NE 1023,1 10 0,0
12.10.2019 04:00:00 10,0 10,0 2 1 ESE - 10 -
12.10.2019 03:00:00 11,0 11,0 4 2 ENE - 10 -
12.10.2019 02:00:00 12,5 11,5 2 1 - 1023,6 10 -
12.10.2019 01:00:00 13,0 11,0 4 2 E - 10 -
12.10.2019 00:00:00 13,0 11,0 4 2 - - 10 -
11.10.2019 23:00:00 14,0 12,0 4 2 ESE - 10 -
11.10.2019 22:00:00 16,0 12,0 5 3 ESE - 10 -
11.10.2019 21:00:00 17,0 12,0 4 2 - - 10 -
11.10.2019 20:00:00 18,5 12,1 2 1 - 1021,6 10 -
11.10.2019 19:00:00 21,0 12,0 5 3 WNW - 10 -
11.10.2019 18:00:00 24,0 11,0 8 4 WNW - 10 -
11.10.2019 17:00:00 24,8 11,5 5 3 W 1021,3 10 0,0
11.10.2019 16:00:00 25,0 11,0 5 3 S - 10 -
11.10.2019 15:00:00 25,0 12,0 4 2 - - 10 -
11.10.2019 14:00:00 23,8 10,5 4 2 - 1022,7 10 -
11.10.2019 13:00:00 22,0 10,0 5 3 W - 10 -
11.10.2019 12:00:00 20,0 12,0 5 3 SSE - 10 -
11.10.2019 11:00:00 17,5 11,1 2 1 - 1024,0 10 0,0
11.10.2019 10:00:00 14,0 11,0 4 2 - - 10 -
11.10.2019 09:00:00 12,0 11,0 2 1 - - 10 -
11.10.2019 08:00:00 9,2 8,7 4 2 - 1022,8 10 -
11.10.2019 07:00:00 9,0 9,0 2 1 - - 10 -
11.10.2019 06:00:00 8,0 8,0 0 0 N - 10 -
11.10.2019 05:00:00 9,6 8,9 4 2 NE 1021,5 10 0,0
11.10.2019 04:00:00 10,0 10,0 4 2 - - 10 -
11.10.2019 03:00:00 10,0 10,0 5 3 E - 10 -
11.10.2019 02:00:00 10,8 9,4 5 3 ESE 1021,3 10 -
11.10.2019 01:00:00 11,0 10,0 2 1 - - 10 -
11.10.2019 00:00:00 12,0 10,0 2 1 - - 10 -
10.10.2019 23:00:00 12,4 10,1 4 2 E 1019,8 10 0,0
10.10.2019 22:00:00 15,0 11,0 9 5 E - 10 -
10.10.2019 21:00:00 14,0 11,0 4 2 - - 10 -
10.10.2019 20:00:00 18,0 11,1 5 3 NNW 1017,9 10 -
10.10.2019 19:00:00 20,0 10,0 9 5 WSW - 10 -
10.10.2019 18:00:00 22,0 9,0 11 6 WSW - 10 -
10.10.2019 17:00:00 22,2 9,7 15 8 W 1016,2 10 0,0
10.10.2019 16:00:00 23,0 11,0 16 9 WSW - 10 -
10.10.2019 15:00:00 23,0 11,0 16 9 W - 10 -
10.10.2019 14:00:00 23,2 11,5 15 8 W 1016,2 10 -
10.10.2019 13:00:00 23,0 13,0 16 9 WSW - 10 -
10.10.2019 12:00:00 22,0 15,0 13 7 SW - 10 -
10.10.2019 11:00:00 20,7 16,0 8 4 SSW 1016,8 10 0,0
10.10.2019 10:00:00 19,0 16,0 4 2 - - 10 -
10.10.2019 09:00:00 17,0 17,0 5 3 NNE - 10 -
10.10.2019 08:00:00 16,8 16,5 4 2 - 1015,6 10 -
10.10.2019 07:00:00 17,0 17,0 4 2 - - 10 -
10.10.2019 06:00:00 18,0 17,0 4 2 - - 10 -
10.10.2019 05:00:00 17,9 16,9 5 3 S 1015,4 10 0,0
10.10.2019 04:00:00 18,0 17,0 4 2 - - 10 -
10.10.2019 03:00:00 18,0 16,0 8 4 NNW - 10 -
10.10.2019 02:00:00 18,4 15,8 4 2 - 1015,4 10 -
10.10.2019 01:00:00 20,0 15,0 8 4 ESE - 10 -
10.10.2019 00:00:00 19,0 14,0 4 2 - - 10 -
09.10.2019 23:00:00 18,9 14,3 11 6 ESE 1014,9 10 0,0
09.10.2019 22:00:00 20,0 13,0 9 5 SW - 10 -
09.10.2019 21:00:00 20,0 13,0 4 2 - - 10 -
09.10.2019 20:00:00 19,4 13,6 5 3 N 1015,2 10 -

tt = temperature
td = dewpoint
ff = wind speed
dd = wind direction
ppp = reduced air pressure
vv = visibility
rr = precipitation

Next stations